Weather History for Lewiston, ID

Change the Weather History Date:

Wednesday, February 6, 2013

  Actual Average Record
Temperature  
Mean Temperature 45 °F 38 °F  
Max Temperature 52 °F 45 °F 60 °F (1987)
Min Temperature 37 °F 31 °F -9 °F (1883)
Degree Days  
Heating Degree Days 20 27  
Month to date heating degree days 126 167  
Since 1 July heating degree days 2898 3286  
Cooling Degree Days 0 0  
Month to date cooling degree days 0 0  
Year to date cooling degree days 0 0  
Moisture  
Dew Point 31 °F    
Average Humidity 62    
Maximum Humidity 85    
Minimum Humidity 38    
Precipitation  
Precipitation 0.00 in 0.03 in 0.90 in (1899)
Month to date precipitation 0.01 0.17  
Year to date precipitation 0.91 1.25  
Snow  
Snow 0.00 in 0.10 in 3.60 in (1916)
Month to date snowfall 0.0 0.5  
Since 1 July snowfall 2.6 8.2  
Snow Depth 0.00 in    
Sea Level Pressure  
Sea Level Pressure 30.04 in    
Wind  
Wind Speed 4 mph (East)    
Max Wind Speed 10 mph    
Max Gust Speed 14 mph    
Visibility 10 miles    
Events      
T = Trace of Precipitation, MM = Missing Value Source: NWS Daily Summary

Daily Weather History Graph

Daily Weather History Graph

Search for Another Location

Airport:

Trip Planner

Search our weather history database for the weather conditions in past years. The results will help you decide how hot, cold, wet, or windy it might be!

Date:

Astronomy

Feb. 06, 2013 Rise Set
Actual Time 7:04 AM PST 5:00 PM PST
Civil Twilight 6:32 AM PST 5:32 PM PST
Nautical Twilight 5:56 AM PST 6:08 PM PST
Astronomical Twilight 5:21 AM PST 6:43 PM PST
Moon 3:59 AM PST (2/6) 1:17 PM PST (2/6)
Length of Visible Light 10h 59m
Length of Day
9h 56m
Waning Crescent, 16% of the Moon is Illuminated
Feb 6
Waning Crescent
Feb 9
New
Feb 17
First Quarter
Feb 25
Full
Mar 4
Last Quarter

Hourly Weather History & Observations

Time (PST) Temp. Windchill Dew Point Humidity Pressure Visibility Wind Dir Wind Speed Gust Speed Precip Events Conditions
12:56 AM 39.0 °F - 35.1 °F 86% 30.00 in 10.0 mi Calm Calm - N/A   Overcast
1:56 AM 37.4 °F 32.1 °F 33.8 °F 87% 29.98 in 10.0 mi South 6.9 mph - N/A   Scattered Clouds
2:56 AM 39.0 °F - 34.0 °F 82% 30.01 in 10.0 mi Calm Calm - N/A   Partly Cloudy
3:56 AM 39.0 °F - 34.0 °F 82% 30.02 in 10.0 mi Calm Calm - N/A   Partly Cloudy
4:56 AM 39.0 °F - 33.1 °F 79% 30.03 in 10.0 mi Calm Calm - N/A   Overcast
5:56 AM 41.0 °F - 33.1 °F 73% 30.05 in 10.0 mi Calm Calm - N/A   Overcast
6:56 AM 37.9 °F - 33.1 °F 83% 30.06 in 10.0 mi Calm Calm - N/A   Overcast
7:56 AM 39.9 °F - 32.0 °F 73% 30.07 in 10.0 mi Calm Calm - N/A   Mostly Cloudy
8:56 AM 44.6 °F 43.1 °F 33.8 °F 66% 30.06 in 10.0 mi NNE 3.5 mph - N/A   Clear
9:56 AM 48.0 °F - 32.0 °F 54% 30.09 in 10.0 mi SSW 5.8 mph - N/A   Clear
10:56 AM 51.1 °F - 32.0 °F 48% 30.11 in 10.0 mi NNW 3.5 mph - N/A   Clear
11:56 AM 52.0 °F - 30.9 °F 45% 30.09 in 10.0 mi North 6.9 mph - N/A   Mostly Cloudy
12:56 PM 52.0 °F - 28.0 °F 40% 30.07 in 10.0 mi NNE 3.5 mph - N/A   Mostly Cloudy
1:56 PM 52.0 °F - 28.0 °F 40% 30.07 in 10.0 mi NNE 4.6 mph - N/A   Overcast
2:56 PM 51.1 °F - 27.0 °F 39% 30.07 in 10.0 mi Calm Calm - N/A   Partly Cloudy
3:56 PM 50.0 °F - 30.0 °F 46% 30.06 in 10.0 mi East 6.9 mph - N/A   Clear
4:56 PM 48.0 °F - 32.0 °F 54% 30.07 in 10.0 mi East 9.2 mph - N/A   Clear
5:56 PM 45.0 °F 41.2 °F 32.0 °F 60% 30.05 in 10.0 mi ENE 6.9 mph - N/A   Clear
6:56 PM 43.0 °F 38.2 °F 30.9 °F 62% 30.03 in 10.0 mi East 8.1 mph - N/A   Clear
7:56 PM 41.0 °F 38.0 °F 30.9 °F 67% 30.02 in 10.0 mi ESE 4.6 mph - N/A   Partly Cloudy
8:56 PM 39.9 °F 35.8 °F 30.0 °F 68% 30.01 in 10.0 mi ESE 5.8 mph - N/A   Scattered Clouds
9:56 PM 39.9 °F 35.8 °F 30.9 °F 70% 30.00 in 10.0 mi East 5.8 mph - N/A   Clear
10:56 PM 39.9 °F 37.8 °F 30.9 °F 70% 29.99 in 10.0 mi ESE 3.5 mph - N/A   Mostly Cloudy
11:56 PM 42.1 °F 38.4 °F 30.0 °F 62% 29.98 in 10.0 mi SE 5.8 mph - N/A   Clear